Weather in Mitspe Ramon

Israel     30°36′50″N   34°48′06″E
temp.,
°C
wind,
m/s
gust,
m/s
humid.,
%
clouds,
%
prec.,
mm/h
press.,
hPa
HPBL,
m
11 may, tue
tue1100:00+23nw21350 0.4 101018
03:00+21nnw11370 0.4 100912
06:00+19nnw22540 0.0 101022
09:00+23nnw11380 0.0 1011417
12:00+27n22260 0.0 10101187
15:00+30n55240 0.0 10081850
18:00+26nnw108300 0.0 1008757
21:00+20nnw69350 0.0 1010274
12 may, wed
wed1200:00+20nnw22340 0.0 101161
03:00+19nnw11310 0.0 101011
06:00+18nnw11360 0.0 101011
09:00+22e11270 0.0 1011460
12:00+26ene01210 0.0 10101282
15:00+29nnw34190 0.0 10082227
18:00+25nw97400 0.0 1009847
21:00+20nnw57550 0.0 1011251
13 may, thu
thu1300:00+20nw22450 0.0 101166
03:00+18nw114224 0.0 101112
06:00+16n01554 0.0 101211
09:00+21ssw11310 0.0 1012476
12:00+26nnw22140 0.0 10121345
15:00+28nnw64130 0.0 10111685
18:00+25nnw86230 0.0 1011898
21:00+20nnw59400 0.0 1013250
14 may, fri
fri1400:00+18nnw22350 0.0 101427
03:00+17nnw22270 0.0 101311
06:00+16nnw11270 0.0 101411
09:00+22ne12170 0.0 1015373
12:00+27n54130 0.0 1014975
15:00+29n76140 0.0 10131348
18:00+26nnw99230 0.0 1013757
21:00+20nnw611440 0.0 1015270
15 may, sat
sat1500:00+18nnw33420 0.0 101554
03:00+17nw22480 0.0 101414
06:00+16nnw22400 0.0 101411
09:00+22nne23210 0.0 1014426
12:00+27nne43140 0.0 1013887
15:00+30n64130 0.0 10111310
18:00+26nnw87260 0.0 1011708
21:00+19nnw510490 0.0 1012248